Cheboygan, MI

12:27 AM EDT on April 30, 2017 (GMT -0400)
Cheboygan

Weather History for KSLH - December, 2013

Change the Weather History Date:

Sunday, December 15, 2013

  Actual Average (KMCD) Record (KMCD)
Temperature  
Mean Temperature 14 °F -  
Max Temperature 19 °F 30 °F 48 °F (2008)
Min Temperature 6 °F 22 °F 2 °F (1989)
Degree Days  
Heating Degree Days 51    
Moisture  
Dew Point 13 °F    
Average Humidity 89    
Maximum Humidity 92    
Minimum Humidity 83    
Precipitation  
Precipitation 0.00 in - - ()
Sea Level Pressure  
Sea Level Pressure 29.79 in    
Wind  
Wind Speed 6 mph (ENE)    
Max Wind Speed 12 mph    
Max Gust Speed 16 mph    
Visibility 3 miles    
Events Snow    
Averages and records for this station are not official NWS values.
T = Trace of Precipitation, MM = Missing Value Source: NWS Daily Summary

Daily Weather History Graph

Daily Weather History Graph

Search for Another Location

Airport or City:

Trip Planner

Search our weather history database for the weather conditions in past years. The results will help you decide how hot, cold, wet, or windy it might be!

Date:

Astronomy

Dec. 15, 2013 Rise Set
Actual Time 8:12 AM EST 4:54 PM EST
Civil Twilight 7:37 AM EST 5:29 PM EST
Nautical Twilight 7:00 AM EST 6:06 PM EST
Astronomical Twilight 6:23 AM EST 6:42 PM EST
Moon 4:01 PM EST (12/15) 6:23 AM EST (12/15)
Length of Visible Light 9h 51m
Length of Day
8h 42m
Waxing Gibbous, 97% of the Moon is Illuminated
Dec 15
Waxing Gibbous
Dec 17
Full
Dec 25
Last Quarter
Jan 1
New
Jan 7
First Quarter

Hourly Weather History & Observations

Time (EST) Temp. Windchill Dew Point Humidity Pressure Visibility Wind Dir Wind Speed Gust Speed Precip Events Conditions
12:15 AM 17.4 °F 7.1 °F 14.5 °F 88% 29.90 in 1.8 mi ENE 8.1 mph - N/A Snow Light Snow
12:35 AM 17.4 °F 7.1 °F 14.2 °F 87% 29.89 in 2.0 mi East 8.1 mph - N/A Snow Light Snow
12:55 AM 17.4 °F 7.1 °F 14.5 °F 88% 29.88 in 2.5 mi East 8.1 mph - N/A Snow Light Snow
1:15 AM 17.2 °F 7.8 °F 13.8 °F 86% 29.87 in 3.0 mi East 6.9 mph - N/A Snow Light Snow
1:35 AM 17.1 °F 7.6 °F 14.2 °F 88% 29.85 in 1.8 mi East 6.9 mph - N/A Snow Light Snow
1:55 AM 16.7 °F 7.2 °F 14.0 °F 89% 29.85 in 2.0 mi East 6.9 mph - N/A Snow Light Snow
2:15 AM 16.7 °F 7.2 °F 13.8 °F 88% 29.84 in 2.5 mi East 6.9 mph - N/A Snow Light Snow
2:35 AM 16.7 °F 8.3 °F 14.0 °F 89% 29.84 in 2.5 mi East 5.8 mph - N/A Snow Light Snow
2:55 AM 16.7 °F 7.2 °F 14.0 °F 89% 29.83 in 2.5 mi East 6.9 mph - N/A Snow Light Snow
3:15 AM 16.9 °F 8.5 °F 14.0 °F 88% 29.83 in 2.0 mi East 5.8 mph - N/A Snow Light Snow
3:35 AM 17.1 °F 8.7 °F 14.4 °F 89% 29.82 in 2.0 mi East 5.8 mph - N/A Snow Light Snow
3:55 AM 16.7 °F 9.6 °F 14.4 °F 91% 29.81 in 1.8 mi ESE 4.6 mph - N/A Snow Light Snow
4:15 AM 16.7 °F 9.6 °F 14.4 °F 91% 29.80 in 1.5 mi ESE 4.6 mph - N/A Snow Light Snow
4:35 AM 16.5 °F 8.1 °F 14.4 °F 91% 29.79 in 1.5 mi ESE 5.8 mph - N/A Snow Light Snow
4:54 AM 16.5 °F 6.9 °F 14.2 °F 90% 29.78 in 2.0 mi ESE 6.9 mph - N/A Snow Light Snow
5:15 AM 16.5 °F 9.4 °F 14.0 °F 90% 29.77 in 2.5 mi ESE 4.6 mph - N/A Snow Light Snow
5:35 AM 16.3 °F 9.2 °F 14.0 °F 90% 29.76 in 2.5 mi ESE 4.6 mph - N/A Snow Light Snow
5:55 AM 16.2 °F 9.0 °F 13.8 °F 90% 29.76 in 2.0 mi ESE 4.6 mph - N/A Snow Light Snow
6:15 AM 16.3 °F 10.8 °F 14.0 °F 90% 29.75 in 1.8 mi SE 3.5 mph - N/A Snow Light Snow
6:34 AM 16.2 °F - 14.0 °F 91% 29.76 in 2.0 mi Calm Calm - N/A Snow Light Snow
6:55 AM 16.2 °F - 14.0 °F 91% 29.75 in 1.5 mi Calm Calm - N/A Snow Light Snow
7:15 AM 16.2 °F 10.6 °F 14.0 °F 91% 29.75 in 1.5 mi SE 3.5 mph - N/A Snow Light Snow
7:35 AM 16.0 °F 8.8 °F 14.0 °F 92% 29.74 in 1.2 mi SE 4.6 mph - N/A Snow Light Snow
7:55 AM 15.8 °F 8.6 °F 13.6 °F 91% 29.73 in 1.2 mi ESE 4.6 mph - N/A Snow Snow
8:15 AM 15.8 °F 8.6 °F 13.8 °F 92% 29.72 in 1.8 mi SE 4.6 mph - N/A Snow Light Snow
8:35 AM 16.0 °F 7.4 °F 13.6 °F 90% 29.72 in 1.0 mi SE 5.8 mph - N/A Snow Light Snow
8:55 AM 16.2 °F 9.0 °F 13.8 °F 90% 29.71 in 0.8 mi SE 4.6 mph - N/A Snow Light Snow
9:15 AM 16.2 °F 7.6 °F 13.8 °F 90% 29.71 in 1.0 mi SE 5.8 mph - N/A Snow Light Snow
9:35 AM 16.3 °F 9.2 °F 14.0 °F 90% 29.71 in 0.8 mi SE 4.6 mph - N/A Snow Light Snow
9:55 AM 16.7 °F 8.3 °F 14.2 °F 90% 29.70 in 0.5 mi SE 5.8 mph - N/A Snow Snow
10:15 AM 16.7 °F 9.6 °F 14.5 °F 91% 29.70 in 0.5 mi SE 4.6 mph - N/A Snow Snow
10:34 AM 17.1 °F 11.7 °F 14.7 °F 91% 29.70 in 0.5 mi SE 3.5 mph - N/A Snow Snow
10:55 AM 17.6 °F 10.7 °F 15.3 °F 91% 29.70 in 0.5 mi SE 4.6 mph - N/A Snow Snow
11:15 AM 17.8 °F - 15.3 °F 90% 29.69 in 0.5 mi Calm Calm - N/A Snow Snow
11:34 AM 18.1 °F 11.3 °F 15.6 °F 90% 29.69 in 0.8 mi SE 4.6 mph - N/A Snow Snow
11:55 AM 18.9 °F 12.1 °F 16.2 °F 89% 29.67 in 1.0 mi SE 4.6 mph - N/A Snow Light Snow
12:15 PM 19.4 °F 10.4 °F 16.5 °F 89% 29.67 in 1.0 mi ESE 6.9 mph - N/A Snow Light Snow
12:35 PM 19.4 °F 11.5 °F 16.3 °F 88% 29.66 in 1.2 mi East 5.8 mph - N/A Snow Light Snow
12:55 PM 19.4 °F 9.5 °F 16.3 °F 88% 29.67 in 0.8 mi NE 8.1 mph - N/A Snow Light Snow
1:15 PM 17.6 °F 5.7 °F 15.1 °F 90% 29.67 in 0.2 mi NNE 10.4 mph 16.1 mph N/A Snow Snow
1:35 PM 17.1 °F 4.3 °F 14.2 °F 88% 29.68 in 0.5 mi NNE 11.5 mph 16.1 mph N/A Snow Snow
1:55 PM 16.2 °F 3.9 °F 13.1 °F 88% 29.68 in 1.0 mi North 10.4 mph - N/A Snow Light Snow
2:15 PM 15.8 °F 5.1 °F 12.9 °F 88% 29.70 in 0.8 mi North 8.1 mph - N/A Snow Light Snow
2:35 PM 15.6 °F 5.9 °F 12.6 °F 88% 29.70 in 1.0 mi North 6.9 mph - N/A Snow Light Snow
2:55 PM 15.8 °F 5.1 °F 12.7 °F 88% 29.72 in 0.5 mi NW 8.1 mph - N/A Snow Snow
3:15 PM 15.4 °F 8.1 °F 12.2 °F 87% 29.72 in 0.5 mi NNW 4.6 mph - N/A Snow Light Snow
3:35 PM 14.9 °F 7.5 °F 11.7 °F 87% 29.74 in 1.5 mi NW 4.6 mph - N/A Snow Light Snow
3:55 PM 14.7 °F - 11.8 °F 88% 29.75 in 0.5 mi Calm Calm - N/A Snow Light Snow
4:15 PM 14.0 °F - 11.3 °F 89% 29.75 in 4.0 mi Calm Calm - N/A Snow Light Snow
4:35 PM 12.7 °F 6.7 °F 10.9 °F 92% 29.77 in 10.0 mi West 3.5 mph - N/A   Clear
4:55 PM 14.4 °F 6.9 °F 12.0 °F 90% 29.77 in 1.8 mi West 4.6 mph - N/A Snow Light Snow
5:14 PM 14.9 °F - 12.2 °F 89% 29.77 in 2.0 mi Calm Calm - N/A Snow Light Snow
5:35 PM 13.5 °F - 11.1 °F 90% 29.78 in 4.0 mi Calm Calm - N/A Snow Light Snow
5:55 PM 12.7 °F - 10.6 °F 91% 29.78 in 7.0 mi Calm Calm - N/A Snow Light Snow
6:14 PM 13.8 °F 8.0 °F 11.8 °F 92% 29.79 in 4.0 mi ENE 3.5 mph - N/A Snow Light Snow
6:35 PM 14.0 °F - 12.0 °F 92% 29.80 in 2.5 mi Calm Calm - N/A Snow Light Snow
6:55 PM 15.6 °F 5.9 °F 12.9 °F 89% 29.81 in 4.0 mi NNE 6.9 mph - N/A Snow Light Snow
7:15 PM 15.6 °F 4.9 °F 12.6 °F 88% 29.82 in 3.0 mi NNE 8.1 mph - N/A Snow Light Snow
7:35 PM 14.9 °F 2.3 °F 12.2 °F 89% 29.83 in 2.0 mi NNE 10.4 mph - N/A Snow Light Snow
7:55 PM 14.5 °F 1.1 °F 11.5 °F 88% 29.83 in 1.8 mi North 11.5 mph - N/A Snow Light Snow
8:15 PM 14.2 °F 2.2 °F 11.1 °F 88% 29.85 in 2.5 mi NNE 9.2 mph - N/A Snow Light Snow
8:35 PM 14.0 °F 3.9 °F 10.8 °F 87% 29.86 in 3.0 mi NNE 6.9 mph - N/A Snow Light Snow
8:55 PM 13.8 °F 2.7 °F 10.6 °F 87% 29.87 in 1.8 mi North 8.1 mph - N/A Snow Light Snow
9:15 PM 13.5 °F 2.2 °F 10.2 °F 87% 29.88 in 3.0 mi NNE 8.1 mph - N/A Snow Light Snow
9:35 PM 12.7 °F 5.0 °F 9.3 °F 86% 29.89 in 2.5 mi North 4.6 mph - N/A Snow Light Snow
9:55 PM 11.7 °F 1.1 °F 7.9 °F 85% 29.90 in 7.0 mi North 6.9 mph - N/A Snow Light Snow
10:15 PM 11.7 °F 1.1 °F 8.1 °F 85% 29.91 in 7.0 mi North 6.9 mph - N/A Snow Light Snow
10:35 PM 12.2 °F -0.2 °F 7.9 °F 83% 29.93 in 7.0 mi North 9.2 mph - N/A Snow Light Snow
10:55 PM 11.3 °F -0.4 °F 7.3 °F 84% 29.94 in 7.0 mi North 8.1 mph - N/A Snow Light Snow
11:15 PM 10.8 °F -1.1 °F 6.4 °F 83% 29.95 in 10.0 mi North 8.1 mph - N/A Snow Light Snow
11:35 PM 9.3 °F -0.5 °F 5.0 °F 83% 29.95 in 10.0 mi North 5.8 mph - N/A   Mostly Cloudy
11:54 PM 6.8 °F -0.1 °F 2.8 °F 84% 29.97 in 10.0 mi North 3.5 mph - N/A   Scattered Clouds